{"data":{"norad_id":62922,"intl_designator":"2025-027R","name":"STARLINK-32916","alt_names":[],"object_type":"PAYLOAD","status":"ACTIVE","operator":null,"country":"US","launch_date":"2025-02-08","launch_site_code":"AFETR","launch_vehicle":null,"mission":null,"orbit_class":"UNKNOWN","rcs_meters":null,"size_class":null,"mass_kg":null,"dimensions":null,"purposes":["comms"],"wikipedia_slug":null,"has_3d_model":false,"image_url":null,"decayed_at":null,"tle_current":{"epoch":"2026-09-21T06:18:49.223808Z","epoch_age_seconds":102339,"freshness":"FRESH","line1":"1 62922U 25027R   26264.26306972  .00014126  00000+0  52166-3 0  9998","line2":"2 62922  43.0020 104.2915 0002013 266.6049  93.4572 15.27592716 91457","mean_motion":15.27592716,"eccentricity":0.0002013,"inclination_deg":43.002,"raan_deg":104.2915,"arg_perigee_deg":266.6049,"mean_anomaly_deg":93.4572,"bstar":0.00052166,"rev_number":9145,"period_min":94.265964017597,"perigee_km":481.62987092879,"apogee_km":484.39216912166,"semimajor_km":6861.1480200252,"source":"CELESTRAK","updated_at":"2026-09-22T09:00:49.709533Z"}}}